Time,TemperatureF,DewpointF,PressureIn,WindDirection,WindDirectionDegrees,WindSpeedMPH,WindSpeedGustMPH,Humidity,HourlyPrecipIn,Conditions,Clouds,dailyrainin,SoftwareType,DateUTC
2013-03-19 00:02:00,25.0,12.4,30.81,NW,315,2.0,8.0,58,0.00,,,0.00,meteohub,2013-03-19 06:02:00,
2013-03-19 00:07:00,25.0,12.4,30.80,NW,315,2.0,4.0,58,0.00,,,0.00,meteohub,2013-03-19 06:07:00,
2013-03-19 00:12:00,25.0,9.9,30.81,NNE,23,7.0,7.0,52,0.00,,,0.00,meteohub,2013-03-19 06:12:00,
2013-03-19 00:17:00,25.3,8.8,30.81,NE,45,4.0,12.0,49,0.00,,,0.00,meteohub,2013-03-19 06:17:00,
2013-03-19 00:22:00,25.5,7.7,30.81,North,0,4.0,12.0,46,0.00,,,0.00,meteohub,2013-03-19 06:22:00,
2013-03-19 00:27:00,25.5,7.7,30.81,NW,315,7.0,15.0,46,0.00,,,0.00,meteohub,2013-03-19 06:27:00,
2013-03-19 00:32:00,25.7,5.7,30.81,North,0,11.0,23.0,42,0.00,,,0.00,meteohub,2013-03-19 06:32:00,
2013-03-19 00:37:00,26.2,4.6,30.80,NE,45,8.0,23.0,39,0.00,,,0.00,meteohub,2013-03-19 06:37:00,
2013-03-19 00:42:00,26.4,3.0,30.81,North,0,8.0,17.0,36,0.00,,,0.00,meteohub,2013-03-19 06:42:00,
2013-03-19 00:47:00,26.4,3.0,30.79,NE,45,15.0,17.0,36,0.00,,,0.00,meteohub,2013-03-19 06:47:00,
2013-03-19 00:52:00,26.4,2.5,30.80,North,0,9.0,17.0,35,0.00,,,0.00,meteohub,2013-03-19 06:52:00,
2013-03-19 00:57:00,26.6,1.4,30.80,North,0,11.0,18.0,33,0.00,,,0.00,meteohub,2013-03-19 06:57:00,
2013-03-19 01:02:00,26.8,1.6,30.80,NE,45,6.0,20.0,33,0.00,,,0.00,meteohub,2013-03-19 07:02:00,
2013-03-19 01:07:00,26.8,1.6,30.80,NE,45,10.0,20.0,33,0.00,,,0.00,meteohub,2013-03-19 07:07:00,
2013-03-19 01:12:00,26.8,2.1,30.81,NW,315,9.0,20.0,34,0.00,,,0.00,meteohub,2013-03-19 07:12:00,
2013-03-19 01:17:00,27.0,1.8,30.81,NW,315,8.0,11.0,33,0.00,,,0.00,meteohub,2013-03-19 07:17:00,
2013-03-19 01:22:00,27.1,1.2,30.80,North,0,13.0,20.0,32,0.00,,,0.00,meteohub,2013-03-19 07:22:00,
2013-03-19 01:27:00,27.0,1.0,30.80,NW,315,5.0,20.0,32,0.00,,,0.00,meteohub,2013-03-19 07:27:00,
2013-03-19 01:32:00,26.8,2.1,30.80,NW,315,12.0,19.0,34,0.00,,,0.00,meteohub,2013-03-19 07:32:00,
2013-03-19 01:37:00,26.8,2.1,30.80,NE,45,14.0,21.0,34,0.00,,,0.00,meteohub,2013-03-19 07:37:00,
2013-03-19 01:42:00,27.0,1.0,30.80,North,0,8.0,30.0,32,0.00,,,0.00,meteohub,2013-03-19 07:42:00,
2013-03-19 01:47:00,26.8,0.9,30.80,North,0,9.0,30.0,32,0.00,,,0.00,meteohub,2013-03-19 07:47:00,
2013-03-19 01:52:00,27.0,1.0,30.80,NE,45,6.0,30.0,32,0.00,,,0.00,meteohub,2013-03-19 07:52:00,
2013-03-19 01:57:00,27.0,1.8,30.81,NE,45,11.0,16.0,33,0.00,,,0.00,meteohub,2013-03-19 07:57:00,
2013-03-19 02:02:00,26.8,1.6,30.81,North,0,15.0,16.0,33,0.00,,,0.00,meteohub,2013-03-19 08:02:00,
2013-03-19 02:07:00,27.0,1.8,30.81,NW,315,9.0,15.0,33,0.00,,,0.00,meteohub,2013-03-19 08:07:00,
2013-03-19 02:12:00,27.0,1.8,30.81,NE,45,9.0,15.0,33,0.00,,,0.00,meteohub,2013-03-19 08:12:00,
2013-03-19 02:17:00,27.0,2.3,30.81,West,270,10.0,15.0,34,0.00,,,0.00,meteohub,2013-03-19 08:17:00,
2013-03-19 02:22:00,27.0,2.3,30.81,NW,315,12.0,15.0,34,0.00,,,0.00,meteohub,2013-03-19 08:22:00,
2013-03-19 02:27:00,26.8,2.8,30.81,NE,45,7.0,13.0,35,0.00,,,0.00,meteohub,2013-03-19 08:27:00,
2013-03-19 02:32:00,26.8,2.8,30.81,North,0,8.0,23.0,35,0.00,,,0.00,meteohub,2013-03-19 08:32:00,
2013-03-19 02:37:00,26.8,2.8,30.82,North,0,5.0,23.0,35,0.00,,,0.00,meteohub,2013-03-19 08:37:00,
2013-03-19 02:42:00,26.8,2.1,30.82,North,0,10.0,23.0,34,0.00,,,0.00,meteohub,2013-03-19 08:42:00,
2013-03-19 02:47:00,27.0,1.0,30.82,NE,45,11.0,12.0,32,0.00,,,0.00,meteohub,2013-03-19 08:47:00,
2013-03-19 02:52:00,27.1,1.2,30.83,North,0,16.0,16.0,32,0.00,,,0.00,meteohub,2013-03-19 08:52:00,
2013-03-19 02:57:00,27.3,1.4,30.83,NW,315,11.0,16.0,32,0.00,,,0.00,meteohub,2013-03-19 08:57:00,
2013-03-19 03:02:00,27.1,1.2,30.82,North,0,11.0,16.0,32,0.00,,,0.00,meteohub,2013-03-19 09:02:00,
2013-03-19 03:07:00,27.0,1.8,30.82,North,0,8.0,16.0,33,0.00,,,0.00,meteohub,2013-03-19 09:07:00,
2013-03-19 03:12:00,26.8,1.6,30.82,NE,45,16.0,16.0,33,0.00,,,0.00,meteohub,2013-03-19 09:12:00,
2013-03-19 03:17:00,27.0,1.0,30.81,North,0,7.0,16.0,32,0.00,,,0.00,meteohub,2013-03-19 09:17:00,
2013-03-19 03:22:00,27.0,0.3,30.81,North,0,12.0,16.0,31,0.00,,,0.00,meteohub,2013-03-19 09:22:00,
2013-03-19 03:27:00,26.8,0.1,30.82,North,0,6.0,16.0,31,0.00,,,0.00,meteohub,2013-03-19 09:27:00,
2013-03-19 03:32:00,26.6,0.7,30.82,NW,315,11.0,15.0,32,0.00,,,0.00,meteohub,2013-03-19 09:32:00,
2013-03-19 03:37:00,26.4,1.2,30.81,North,0,10.0,15.0,33,0.00,,,0.00,meteohub,2013-03-19 09:37:00,
2013-03-19 03:42:00,26.2,1.0,30.81,North,0,7.0,15.0,33,0.00,,,0.00,meteohub,2013-03-19 09:42:00,
2013-03-19 03:48:00,26.1,0.1,30.81,North,0,12.0,15.0,32,0.00,,,0.00,meteohub,2013-03-19 09:48:00,
2013-03-19 03:53:00,26.1,-1.1,30.81,NNW,338,6.0,15.0,30,0.00,,,0.00,meteohub,2013-03-19 09:53:00,
2013-03-19 03:58:00,26.2,-1.7,30.81,North,0,6.0,17.0,29,0.00,,,0.00,meteohub,2013-03-19 09:58:00,
2013-03-19 04:03:00,26.2,-1.7,30.81,North,0,6.0,17.0,29,0.00,,,0.00,meteohub,2013-03-19 10:03:00,
2013-03-19 04:08:00,25.5,-3.1,30.82,North,0,8.0,15.0,28,0.00,,,0.00,meteohub,2013-03-19 10:08:00,
2013-03-19 04:13:00,25.3,-3.3,30.82,North,0,3.0,15.0,28,0.00,,,0.00,meteohub,2013-03-19 10:13:00,
2013-03-19 04:18:00,25.2,-3.5,30.82,North,0,9.0,9.0,28,0.00,,,0.00,meteohub,2013-03-19 10:18:00,
2013-03-19 04:23:00,25.2,-3.5,30.82,North,0,8.0,9.0,28,0.00,,,0.00,meteohub,2013-03-19 10:23:00,
2013-03-19 04:28:00,25.2,-2.6,30.82,North,0,4.0,10.0,29,0.00,,,0.00,meteohub,2013-03-19 10:28:00,
2013-03-19 04:33:00,25.2,-2.6,30.82,North,0,3.0,10.0,29,0.00,,,0.00,meteohub,2013-03-19 10:33:00,
2013-03-19 04:38:00,24.8,-2.2,30.82,WNW,293,6.0,13.0,30,0.00,,,0.00,meteohub,2013-03-19 10:38:00,
2013-03-19 04:43:00,24.4,-1.8,30.82,North,0,3.0,13.0,31,0.00,,,0.00,meteohub,2013-03-19 10:43:00,
2013-03-19 04:48:00,24.3,-2.0,30.82,North,0,2.0,11.0,31,0.00,,,0.00,meteohub,2013-03-19 10:48:00,
2013-03-19 04:53:00,23.9,-1.7,30.83,North,0,2.0,11.0,32,0.00,,,0.00,meteohub,2013-03-19 10:53:00,
2013-03-19 04:58:00,23.4,-1.5,30.83,North,0,8.0,8.0,33,0.00,,,0.00,meteohub,2013-03-19 10:58:00,
2013-03-19 05:03:00,23.4,-0.2,30.83,NE,45,4.0,9.0,35,0.00,,,0.00,meteohub,2013-03-19 11:03:00,
2013-03-19 05:08:00,23.2,0.7,30.84,North,0,4.0,9.0,37,0.00,,,0.00,meteohub,2013-03-19 11:08:00,
2013-03-19 05:13:00,22.8,2.1,30.84,NE,45,10.0,10.0,40,0.00,,,0.00,meteohub,2013-03-19 11:13:00,
2013-03-19 05:18:00,23.0,2.3,30.84,North,0,4.0,10.0,40,0.00,,,0.00,meteohub,2013-03-19 11:18:00,
2013-03-19 05:23:00,23.0,2.3,30.84,NNW,338,4.0,10.0,40,0.00,,,0.00,meteohub,2013-03-19 11:23:00,
2013-03-19 05:28:00,22.8,2.7,30.85,NW,315,5.0,10.0,41,0.00,,,0.00,meteohub,2013-03-19 11:28:00,
2013-03-19 05:33:00,22.6,2.5,30.85,NW,315,4.0,9.0,41,0.00,,,0.00,meteohub,2013-03-19 11:33:00,
2013-03-19 05:38:00,22.1,1.9,30.84,North,0,2.0,7.0,41,0.00,,,0.00,meteohub,2013-03-19 11:38:00,
2013-03-19 05:43:00,21.7,1.6,30.85,North,0,1.0,7.0,41,0.00,,,0.00,meteohub,2013-03-19 11:43:00,
2013-03-19 05:48:00,21.2,1.2,30.85,NE,45,3.0,6.0,41,0.00,,,0.00,meteohub,2013-03-19 11:48:00,
2013-03-19 05:53:00,21.2,1.8,30.84,NE,45,4.0,4.0,42,0.00,,,0.00,meteohub,2013-03-19 11:53:00,
2013-03-19 05:58:00,21.6,1.6,30.85,North,0,2.0,4.0,41,0.00,,,0.00,meteohub,2013-03-19 11:58:00,
2013-03-19 06:03:00,21.6,1.6,30.85,North,0,1.0,6.0,41,0.00,,,0.00,meteohub,2013-03-19 12:03:00,
2013-03-19 06:08:00,21.2,1.2,30.85,North,0,2.0,6.0,41,0.00,,,0.00,meteohub,2013-03-19 12:08:00,
2013-03-19 06:13:00,20.8,1.4,30.85,North,0,3.0,6.0,42,0.00,,,0.00,meteohub,2013-03-19 12:13:00,
2013-03-19 06:18:00,21.0,1.6,30.85,NW,315,5.0,5.0,42,0.00,,,0.00,meteohub,2013-03-19 12:18:00,
2013-03-19 06:23:00,21.2,0.1,30.86,North,0,3.0,7.0,39,0.00,,,0.00,meteohub,2013-03-19 12:23:00,
2013-03-19 06:28:00,21.4,-0.2,30.86,North,0,2.0,7.0,38,0.00,,,0.00,meteohub,2013-03-19 12:28:00,
2013-03-19 06:33:00,21.4,-0.2,30.86,North,0,4.0,7.0,38,0.00,,,0.00,meteohub,2013-03-19 12:33:00,
2013-03-19 06:38:00,21.4,-0.9,30.87,WNW,293,4.0,4.0,37,0.00,,,0.00,meteohub,2013-03-19 12:38:00,
2013-03-19 06:43:00,21.4,-0.9,30.87,North,0,8.0,8.0,37,0.00,,,0.00,meteohub,2013-03-19 12:43:00,
2013-03-19 06:48:00,21.6,0.0,30.87,North,0,1.0,6.0,38,0.00,,,0.00,meteohub,2013-03-19 12:48:00,
2013-03-19 06:53:00,21.4,-0.2,30.87,North,0,1.0,8.0,38,0.00,,,0.00,meteohub,2013-03-19 12:53:00,
2013-03-19 06:58:00,21.2,-0.4,30.87,NE,45,10.0,10.0,38,0.00,,,0.00,meteohub,2013-03-19 12:58:00,
2013-03-19 07:03:00,21.6,0.0,30.87,North,0,4.0,8.0,38,0.00,,,0.00,meteohub,2013-03-19 13:03:00,
2013-03-19 07:08:00,21.7,0.0,30.88,NE,45,2.0,12.0,38,0.00,,,0.00,meteohub,2013-03-19 13:08:00,
2013-03-19 07:13:00,21.4,-0.9,30.88,North,0,4.0,12.0,37,0.00,,,0.00,meteohub,2013-03-19 13:13:00,
2013-03-19 07:18:00,21.4,-0.9,30.89,West,270,4.0,6.0,37,0.00,,,0.00,meteohub,2013-03-19 13:18:00,
2013-03-19 07:23:00,21.6,-0.8,30.89,NW,315,1.0,6.0,37,0.00,,,0.00,meteohub,2013-03-19 13:23:00,
2013-03-19 07:28:00,21.4,-0.2,30.89,North,0,6.0,6.0,38,0.00,,,0.00,meteohub,2013-03-19 13:28:00,
2013-03-19 07:34:00,21.6,0.0,30.90,West,270,2.0,4.0,38,0.00,,,0.00,meteohub,2013-03-19 13:34:00,
2013-03-19 07:39:00,21.6,0.5,30.90,North,0,5.0,11.0,39,0.00,,,0.00,meteohub,2013-03-19 13:39:00,
2013-03-19 07:44:00,21.2,1.2,30.90,North,0,5.0,11.0,41,0.00,,,0.00,meteohub,2013-03-19 13:44:00,
2013-03-19 07:49:00,21.0,1.6,30.90,North,0,4.0,11.0,42,0.00,,,0.00,meteohub,2013-03-19 13:49:00,
2013-03-19 07:53:00,20.8,1.4,30.91,North,0,3.0,6.0,42,0.00,,,0.00,meteohub,2013-03-19 13:53:00,
2013-03-19 07:59:00,20.8,1.9,30.91,NW,315,3.0,6.0,43,0.00,,,0.00,meteohub,2013-03-19 13:59:00,
2013-03-19 08:04:00,20.7,1.8,30.92,North,0,4.0,5.0,43,0.00,,,0.00,meteohub,2013-03-19 14:04:00,
2013-03-19 08:09:00,20.7,1.8,30.92,NE,45,2.0,4.0,43,0.00,,,0.00,meteohub,2013-03-19 14:09:00,
2013-03-19 08:14:00,20.7,2.1,30.92,NE,45,3.0,4.0,44,0.00,,,0.00,meteohub,2013-03-19 14:14:00,
2013-03-19 08:19:00,20.8,2.3,30.92,North,0,2.0,4.0,44,0.00,,,0.00,meteohub,2013-03-19 14:19:00,
2013-03-19 08:24:00,21.0,2.5,30.92,NW,315,3.0,4.0,44,0.00,,,0.00,meteohub,2013-03-19 14:24:00,
2013-03-19 08:29:00,21.2,1.8,30.92,NW,315,5.0,5.0,42,0.00,,,0.00,meteohub,2013-03-19 14:29:00,
2013-03-19 08:34:00,21.6,1.6,30.93,North,0,5.0,5.0,41,0.00,,,0.00,meteohub,2013-03-19 14:34:00,
2013-03-19 08:39:00,21.7,1.6,30.93,NNW,338,4.0,5.0,41,0.00,,,0.00,meteohub,2013-03-19 14:39:00,
2013-03-19 08:44:00,22.1,0.9,30.93,North,0,7.0,7.0,39,0.00,,,0.00,meteohub,2013-03-19 14:44:00,
2013-03-19 08:49:00,22.6,0.3,30.93,NE,45,3.0,7.0,37,0.00,,,0.00,meteohub,2013-03-19 14:49:00,
2013-03-19 08:54:00,23.4,-0.9,30.93,NNW,338,4.0,7.0,34,0.00,,,0.00,meteohub,2013-03-19 14:54:00,
2013-03-19 08:59:00,23.9,-1.7,30.93,West,270,5.0,7.0,32,0.00,,,0.00,meteohub,2013-03-19 14:59:00,
2013-03-19 09:04:00,24.8,-2.9,30.94,West,270,2.0,8.0,29,0.00,,,0.00,meteohub,2013-03-19 15:04:00,
2013-03-19 09:09:00,25.5,-2.4,30.94,South,180,2.0,8.0,29,0.00,,,0.00,meteohub,2013-03-19 15:09:00,
2013-03-19 09:14:00,26.2,-2.4,30.94,NW,315,3.0,8.0,28,0.00,,,0.00,meteohub,2013-03-19 15:14:00,
2013-03-19 09:19:00,27.3,-3.1,30.94,West,270,3.0,5.0,26,0.00,,,0.00,meteohub,2013-03-19 15:19:00,
2013-03-19 09:24:00,28.0,-2.4,30.94,SW,225,4.0,5.0,26,0.00,,,0.00,meteohub,2013-03-19 15:24:00,
2013-03-19 09:29:00,28.6,1.0,30.94,NW,315,2.0,5.0,30,0.00,,,0.00,meteohub,2013-03-19 15:29:00,
2013-03-19 09:34:00,28.6,-0.4,30.94,NE,45,8.0,8.0,28,0.00,,,0.00,meteohub,2013-03-19 15:34:00,
2013-03-19 09:39:00,27.9,-4.4,30.94,North,0,9.0,9.0,24,0.00,,,0.00,meteohub,2013-03-19 15:39:00,
2013-03-19 09:44:00,27.5,-5.4,30.95,NE,45,10.0,11.0,23,0.00,,,0.00,meteohub,2013-03-19 15:44:00,
2013-03-19 09:49:00,27.5,-4.5,30.94,North,0,11.0,11.0,24,0.00,,,0.00,meteohub,2013-03-19 15:49:00,
2013-03-19 09:54:00,27.3,-4.7,30.94,NE,45,8.0,11.0,24,0.00,,,0.00,meteohub,2013-03-19 15:54:00,
2013-03-19 09:59:00,27.1,-5.8,30.94,NNW,338,9.0,11.0,23,0.00,,,0.00,meteohub,2013-03-19 15:59:00,
2013-03-19 10:04:00,27.1,-4.9,30.94,NW,315,8.0,11.0,24,0.00,,,0.00,meteohub,2013-03-19 16:04:00,
2013-03-19 10:09:00,28.0,-4.2,30.95,NW,315,11.0,11.0,24,0.00,,,0.00,meteohub,2013-03-19 16:09:00,
2013-03-19 10:14:00,27.9,-4.4,30.94,North,0,6.0,11.0,24,0.00,,,0.00,meteohub,2013-03-19 16:14:00,
2013-03-19 10:19:00,28.4,-0.6,30.94,North,0,8.0,11.0,28,0.00,,,0.00,meteohub,2013-03-19 16:19:00,
2013-03-19 10:25:00,28.9,-0.9,30.94,NE,45,5.0,11.0,27,0.00,,,0.00,meteohub,2013-03-19 16:25:00,
2013-03-19 10:30:00,29.8,0.0,30.94,North,0,8.0,11.0,27,0.00,,,0.00,meteohub,2013-03-19 16:30:00,
2013-03-19 10:35:00,30.6,-2.0,30.94,NW,315,10.0,10.0,24,0.00,,,0.00,meteohub,2013-03-19 16:35:00,
2013-03-19 10:40:00,30.9,-1.7,30.94,SW,225,5.0,11.0,24,0.00,,,0.00,meteohub,2013-03-19 16:40:00,
2013-03-19 10:45:00,31.8,-1.8,30.94,NE,45,8.0,11.0,23,0.00,,,0.00,meteohub,2013-03-19 16:45:00,
2013-03-19 10:50:00,32.2,-2.4,30.94,NE,45,6.0,11.0,22,0.00,,,0.00,meteohub,2013-03-19 16:50:00,
2013-03-19 10:55:00,32.5,-2.0,30.94,NW,315,6.0,11.0,22,0.00,,,0.00,meteohub,2013-03-19 16:55:00,
2013-03-19 11:00:00,32.7,-2.0,30.94,NW,315,7.0,11.0,22,0.00,,,0.00,meteohub,2013-03-19 17:00:00,
2013-03-19 11:05:00,32.9,-1.8,30.95,North,0,8.0,12.0,22,0.00,,,0.00,meteohub,2013-03-19 17:05:00,
2013-03-19 11:10:00,33.3,-1.5,30.94,North,0,7.0,12.0,22,0.00,,,0.00,meteohub,2013-03-19 17:10:00,
2013-03-19 11:15:00,33.1,-1.7,30.94,North,0,11.0,12.0,22,0.00,,,0.00,meteohub,2013-03-19 17:15:00,
2013-03-19 11:20:00,33.1,-1.7,30.94,WNW,293,10.0,12.0,22,0.00,,,0.00,meteohub,2013-03-19 17:20:00,
2013-03-19 11:25:00,33.1,-2.6,30.94,NW,315,10.0,12.0,21,0.00,,,0.00,meteohub,2013-03-19 17:25:00,
2013-03-19 11:30:00,32.9,-2.7,30.95,North,0,11.0,17.0,21,0.00,,,0.00,meteohub,2013-03-19 17:30:00,
2013-03-19 11:35:00,33.1,-2.6,30.95,North,0,11.0,17.0,21,0.00,,,0.00,meteohub,2013-03-19 17:35:00,
2013-03-19 11:40:00,33.3,-2.6,30.94,NW,315,8.0,17.0,21,0.00,,,0.00,meteohub,2013-03-19 17:40:00,
2013-03-19 11:45:00,33.4,-2.4,30.95,North,0,8.0,11.0,21,0.00,,,0.00,meteohub,2013-03-19 17:45:00,
2013-03-19 11:50:00,33.4,-2.4,30.94,West,270,6.0,11.0,21,0.00,,,0.00,meteohub,2013-03-19 17:50:00,
2013-03-19 11:55:00,33.4,-2.4,30.95,NW,315,10.0,15.0,21,0.00,,,0.00,meteohub,2013-03-19 17:55:00,
2013-03-19 12:00:00,33.4,-2.4,30.94,WNW,293,10.0,15.0,21,0.00,,,0.00,meteohub,2013-03-19 18:00:00,
2013-03-19 12:05:00,33.4,-2.4,30.94,WNW,293,10.0,15.0,21,0.00,,,0.00,meteohub,2013-03-19 18:05:00,
2013-03-19 12:10:00,34.2,-2.7,30.94,NW,315,11.0,14.0,20,0.00,,,0.00,meteohub,2013-03-19 18:10:00,
2013-03-19 12:15:00,34.2,-2.7,30.94,WNW,293,12.0,14.0,20,0.00,,,0.00,meteohub,2013-03-19 18:15:00,
2013-03-19 12:20:00,34.0,-4.0,30.94,NW,315,10.0,15.0,19,0.00,,,0.00,meteohub,2013-03-19 18:20:00,
2013-03-19 12:25:00,34.2,-3.8,30.94,NE,45,6.0,15.0,19,0.00,,,0.00,meteohub,2013-03-19 18:25:00,
2013-03-19 12:30:00,34.3,-3.6,30.95,North,0,12.0,15.0,19,0.00,,,0.00,meteohub,2013-03-19 18:30:00,
2013-03-19 12:35:00,34.3,-3.6,30.95,NNE,23,13.0,13.0,19,0.00,,,0.00,meteohub,2013-03-19 18:35:00,
2013-03-19 12:40:00,34.0,-4.0,30.95,North,0,8.0,14.0,19,0.00,,,0.00,meteohub,2013-03-19 18:40:00,
2013-03-19 12:45:00,34.2,-3.8,30.95,NNW,338,10.0,14.0,19,0.00,,,0.00,meteohub,2013-03-19 18:45:00,
2013-03-19 12:50:00,34.0,-4.0,30.95,WNW,293,14.0,14.0,19,0.00,,,0.00,meteohub,2013-03-19 18:50:00,
2013-03-19 12:55:00,34.0,-1.8,30.94,NE,45,13.0,15.0,21,0.00,,,0.00,meteohub,2013-03-19 18:55:00,
2013-03-19 13:00:00,33.4,-3.3,30.94,NW,315,8.0,15.0,20,0.00,,,0.00,meteohub,2013-03-19 19:00:00,
2013-03-19 13:05:00,34.3,-1.5,30.94,North,0,10.0,15.0,21,0.00,,,0.00,meteohub,2013-03-19 19:05:00,
2013-03-19 13:10:00,34.7,-1.3,30.94,NW,315,11.0,15.0,21,0.00,,,0.00,meteohub,2013-03-19 19:10:00,
2013-03-19 13:15:00,34.9,-1.1,30.94,NW,315,12.0,14.0,21,0.00,,,0.00,meteohub,2013-03-19 19:15:00,
2013-03-19 13:20:00,34.7,-1.3,30.94,NW,315,11.0,14.0,21,0.00,,,0.00,meteohub,2013-03-19 19:20:00,
2013-03-19 13:25:00,34.3,-1.5,30.94,North,0,13.0,14.0,21,0.00,,,0.00,meteohub,2013-03-19 19:25:00,
2013-03-19 13:30:00,34.2,-1.7,30.94,North,0,12.0,14.0,21,0.00,,,0.00,meteohub,2013-03-19 19:30:00,
2013-03-19 13:35:00,34.5,-1.5,30.94,West,270,8.0,15.0,21,0.00,,,0.00,meteohub,2013-03-19 19:35:00,
2013-03-19 13:41:00,34.7,-1.3,30.94,NE,45,11.0,15.0,21,0.00,,,0.00,meteohub,2013-03-19 19:41:00,
2013-03-19 13:46:00,35.2,-0.8,30.94,North,0,9.0,15.0,21,0.00,,,0.00,meteohub,2013-03-19 19:46:00,
2013-03-19 13:51:00,35.8,-1.3,30.93,WNW,293,8.0,15.0,20,0.00,,,0.00,meteohub,2013-03-19 19:51:00,
2013-03-19 13:56:00,36.0,-1.3,30.93,NW,315,10.0,11.0,20,0.00,,,0.00,meteohub,2013-03-19 19:56:00,
2013-03-19 14:01:00,35.8,-1.3,30.94,North,0,15.0,15.0,20,0.00,,,0.00,meteohub,2013-03-19 20:01:00,
2013-03-19 14:06:00,35.8,-1.3,30.93,North,0,15.0,15.0,20,0.00,,,0.00,meteohub,2013-03-19 20:06:00,
2013-03-19 14:11:00,35.8,-1.3,30.94,North,0,11.0,15.0,20,0.00,,,0.00,meteohub,2013-03-19 20:11:00,
2013-03-19 14:16:00,36.0,-1.3,30.93,NW,315,15.0,15.0,20,0.00,,,0.00,meteohub,2013-03-19 20:16:00,
2013-03-19 14:21:00,36.5,-0.8,30.93,NW,315,7.0,15.0,20,0.00,,,0.00,meteohub,2013-03-19 20:21:00,
2013-03-19 14:27:00,37.0,-1.5,30.93,NE,45,16.0,16.0,19,0.00,,,0.00,meteohub,2013-03-19 20:27:00,
2013-03-19 14:32:00,36.0,-2.4,30.93,NW,315,11.0,16.0,19,0.00,,,0.00,meteohub,2013-03-19 20:32:00,
2013-03-19 14:37:00,36.0,-2.4,30.93,South,180,8.0,16.0,19,0.00,,,0.00,meteohub,2013-03-19 20:37:00,
2013-03-19 14:42:00,36.5,-1.8,30.93,North,0,5.0,16.0,19,0.00,,,0.00,meteohub,2013-03-19 20:42:00,
2013-03-19 14:47:00,36.5,-1.8,30.93,North,0,8.0,16.0,19,0.00,,,0.00,meteohub,2013-03-19 20:47:00,
2013-03-19 14:52:00,37.0,-1.5,30.93,North,0,11.0,16.0,19,0.00,,,0.00,meteohub,2013-03-19 20:52:00,
2013-03-19 14:57:00,37.4,3.0,30.93,NW,315,11.0,16.0,23,0.00,,,0.00,meteohub,2013-03-19 20:57:00,
2013-03-19 15:02:00,37.6,3.2,30.93,NNW,338,7.0,12.0,23,0.00,,,0.00,meteohub,2013-03-19 21:02:00,
2013-03-19 15:07:00,37.9,3.4,30.93,North,0,15.0,15.0,23,0.00,,,0.00,meteohub,2013-03-19 21:07:00,
2013-03-19 15:12:00,37.6,3.2,30.93,NW,315,9.0,15.0,23,0.00,,,0.00,meteohub,2013-03-19 21:12:00,
2013-03-19 15:17:00,37.4,3.0,30.93,NW,315,12.0,15.0,23,0.00,,,0.00,meteohub,2013-03-19 21:17:00,
2013-03-19 15:22:00,37.6,3.2,30.93,NW,315,7.0,15.0,23,0.00,,,0.00,meteohub,2013-03-19 21:22:00,
2013-03-19 15:27:00,37.6,3.2,30.93,NE,45,12.0,12.0,23,0.00,,,0.00,meteohub,2013-03-19 21:27:00,
2013-03-19 15:32:00,37.6,3.2,30.93,NE,45,11.0,14.0,23,0.00,,,0.00,meteohub,2013-03-19 21:32:00,
2013-03-19 15:37:00,38.1,3.6,30.93,North,0,10.0,14.0,23,0.00,,,0.00,meteohub,2013-03-19 21:37:00,
2013-03-19 15:42:00,37.6,3.2,30.93,NW,315,15.0,15.0,23,0.00,,,0.00,meteohub,2013-03-19 21:42:00,
2013-03-19 15:47:00,37.4,3.0,30.93,NW,315,12.0,15.0,23,0.00,,,0.00,meteohub,2013-03-19 21:47:00,
2013-03-19 15:52:00,37.0,-1.5,30.93,North,0,11.0,15.0,19,0.00,,,0.00,meteohub,2013-03-19 21:52:00,
2013-03-19 15:58:00,36.7,-1.7,30.93,NW,315,15.0,15.0,19,0.00,,,0.00,meteohub,2013-03-19 21:58:00,
2013-03-19 16:03:00,36.5,-1.8,30.94,North,0,13.0,15.0,19,0.00,,,0.00,meteohub,2013-03-19 22:03:00,
2013-03-19 16:08:00,36.1,-2.2,30.94,NW,315,12.0,15.0,19,0.00,,,0.00,meteohub,2013-03-19 22:08:00,
2013-03-19 16:13:00,36.3,-2.0,30.94,East,90,8.0,15.0,19,0.00,,,0.00,meteohub,2013-03-19 22:13:00,
2013-03-19 16:18:00,36.1,-2.2,30.94,NW,315,8.0,13.0,19,0.00,,,0.00,meteohub,2013-03-19 22:18:00,
2013-03-19 16:23:00,36.3,-2.0,30.94,NE,45,8.0,17.0,19,0.00,,,0.00,meteohub,2013-03-19 22:23:00,
2013-03-19 16:28:00,36.5,-1.8,30.94,NE,45,14.0,17.0,19,0.00,,,0.00,meteohub,2013-03-19 22:28:00,
2013-03-19 16:33:00,36.1,-2.2,30.94,East,90,12.0,17.0,19,0.00,,,0.00,meteohub,2013-03-19 22:33:00,
2013-03-19 16:38:00,35.8,-2.6,30.95,NW,315,9.0,16.0,19,0.00,,,0.00,meteohub,2013-03-19 22:38:00,
2013-03-19 16:43:00,35.6,-2.6,30.95,North,0,11.0,16.0,19,0.00,,,0.00,meteohub,2013-03-19 22:43:00,
2013-03-19 16:48:00,35.4,-1.7,30.95,NE,45,8.0,16.0,20,0.00,,,0.00,meteohub,2013-03-19 22:48:00,
2013-03-19 16:53:00,35.2,-1.8,30.95,NE,45,10.0,16.0,20,0.00,,,0.00,meteohub,2013-03-19 22:53:00,
2013-03-19 16:58:00,35.1,-2.0,30.95,NW,315,8.0,16.0,20,0.00,,,0.00,meteohub,2013-03-19 22:58:00,
2013-03-19 17:03:00,35.2,-1.8,30.95,West,270,9.0,16.0,20,0.00,,,0.00,meteohub,2013-03-19 23:03:00,
2013-03-19 17:08:00,34.9,-2.2,30.95,North,0,7.0,17.0,20,0.00,,,0.00,meteohub,2013-03-19 23:08:00,
2013-03-19 17:13:00,34.9,-2.2,30.95,NNW,338,9.0,17.0,20,0.00,,,0.00,meteohub,2013-03-19 23:13:00,
2013-03-19 17:18:00,34.9,-2.2,30.95,North,0,11.0,17.0,20,0.00,,,0.00,meteohub,2013-03-19 23:18:00,
2013-03-19 17:23:00,34.5,-2.4,30.96,North,0,10.0,15.0,20,0.00,,,0.00,meteohub,2013-03-19 23:23:00,
2013-03-19 17:28:00,34.3,-2.6,30.96,East,90,11.0,15.0,20,0.00,,,0.00,meteohub,2013-03-19 23:28:00,
2013-03-19 17:33:00,34.0,-2.9,30.96,North,0,11.0,15.0,20,0.00,,,0.00,meteohub,2013-03-19 23:33:00,
2013-03-19 17:38:00,33.6,-2.2,30.96,North,0,11.0,15.0,21,0.00,,,0.00,meteohub,2013-03-19 23:38:00,
2013-03-19 17:43:00,33.4,-2.4,30.96,NE,45,9.0,14.0,21,0.00,,,0.00,meteohub,2013-03-19 23:43:00,
2013-03-19 17:48:00,33.4,-2.4,30.96,North,0,9.0,13.0,21,0.00,,,0.00,meteohub,2013-03-19 23:48:00,
2013-03-19 17:53:00,33.4,-2.4,30.96,NE,45,11.0,13.0,21,0.00,,,0.00,meteohub,2013-03-19 23:53:00,
2013-03-19 17:58:00,33.3,-2.6,30.96,NW,315,9.0,13.0,21,0.00,,,0.00,meteohub,2013-03-19 23:58:00,
2013-03-19 18:03:00,33.3,-2.6,30.96,North,0,15.0,15.0,21,0.00,,,0.00,meteohub,2013-03-20 00:03:00,
2013-03-19 18:08:00,32.5,-3.1,30.96,SE,135,9.0,15.0,21,0.00,,,0.00,meteohub,2013-03-20 00:08:00,
2013-03-19 18:13:00,32.4,-3.3,30.96,North,0,5.0,15.0,21,0.00,,,0.00,meteohub,2013-03-20 00:13:00,
2013-03-19 18:18:00,32.4,-3.3,30.97,West,270,11.0,15.0,21,0.00,,,0.00,meteohub,2013-03-20 00:18:00,
2013-03-19 18:24:00,32.4,-3.3,30.97,North,0,5.0,15.0,21,0.00,,,0.00,meteohub,2013-03-20 00:24:00,
2013-03-19 18:29:00,32.0,-3.5,30.97,NNW,338,6.0,12.0,21,0.00,,,0.00,meteohub,2013-03-20 00:29:00,
2013-03-19 18:34:00,31.1,-2.4,30.97,NNW,338,4.0,12.0,23,0.00,,,0.00,meteohub,2013-03-20 00:34:00,
2013-03-19 18:39:00,30.4,-2.9,30.97,North,0,6.0,9.0,23,0.00,,,0.00,meteohub,2013-03-20 00:39:00,
2013-03-19 18:44:00,29.8,-2.6,30.97,North,0,7.0,12.0,24,0.00,,,0.00,meteohub,2013-03-20 00:44:00,
2013-03-19 18:49:00,29.7,-2.7,30.97,NE,45,5.0,12.0,24,0.00,,,0.00,meteohub,2013-03-20 00:49:00,
2013-03-19 18:54:00,29.3,-3.1,30.97,North,0,8.0,12.0,24,0.00,,,0.00,meteohub,2013-03-20 00:54:00,
2013-03-19 18:59:00,28.9,-3.3,30.97,NW,315,4.0,10.0,24,0.00,,,0.00,meteohub,2013-03-20 00:59:00,
2013-03-19 19:04:00,28.6,-3.6,30.98,East,90,4.0,8.0,24,0.00,,,0.00,meteohub,2013-03-20 01:04:00,
2013-03-19 19:09:00,28.0,-6.9,30.98,NE,45,2.0,8.0,21,0.00,,,0.00,meteohub,2013-03-20 01:09:00,
2013-03-19 19:14:00,27.3,-9.6,30.98,NE,45,4.0,6.0,19,0.00,,,0.00,meteohub,2013-03-20 01:14:00,
2013-03-19 19:19:00,27.0,-9.8,30.98,North,0,2.0,6.0,19,0.00,,,0.00,meteohub,2013-03-20 01:19:00,
2013-03-19 19:24:00,26.8,-8.9,30.98,North,0,2.0,4.0,20,0.00,,,0.00,meteohub,2013-03-20 01:24:00,
2013-03-19 19:29:00,26.4,-8.3,30.98,North,0,4.0,5.0,21,0.00,,,0.00,meteohub,2013-03-20 01:29:00,
2013-03-19 19:34:00,26.2,-8.3,30.99,North,0,5.0,5.0,21,0.00,,,0.00,meteohub,2013-03-20 01:34:00,
2013-03-19 19:39:00,26.1,-7.6,30.99,WNW,293,3.0,5.0,22,0.00,,,0.00,meteohub,2013-03-20 01:39:00,
2013-03-19 19:44:00,25.9,-7.8,31.00,NNW,338,4.0,7.0,22,0.00,,,0.00,meteohub,2013-03-20 01:44:00,
2013-03-19 19:49:00,25.7,-8.0,31.00,North,0,7.0,7.0,22,0.00,,,0.00,meteohub,2013-03-20 01:49:00,
2013-03-19 19:54:00,25.7,-8.0,30.99,NE,45,3.0,7.0,22,0.00,,,0.00,meteohub,2013-03-20 01:54:00,
2013-03-19 19:59:00,25.5,-8.1,31.00,NW,315,1.0,7.0,22,0.00,,,0.00,meteohub,2013-03-20 01:59:00,
2013-03-19 20:04:00,25.5,-8.1,31.00,North,0,2.0,7.0,22,0.00,,,0.00,meteohub,2013-03-20 02:04:00,
2013-03-19 20:09:00,24.6,-8.0,31.00,NE,45,3.0,7.0,23,0.00,,,0.00,meteohub,2013-03-20 02:09:00,
2013-03-19 20:14:00,24.1,-7.4,31.00,NE,45,4.0,4.0,24,0.00,,,0.00,meteohub,2013-03-20 02:14:00,
2013-03-19 20:19:00,23.7,-7.8,31.00,North,0,4.0,4.0,24,0.00,,,0.00,meteohub,2013-03-20 02:19:00,
2013-03-19 20:24:00,23.5,-8.0,31.00,NE,45,4.0,4.0,24,0.00,,,0.00,meteohub,2013-03-20 02:24:00,
2013-03-19 20:29:00,23.4,-8.1,31.01,ENE,68,4.0,4.0,24,0.00,,,0.00,meteohub,2013-03-20 02:29:00,
2013-03-19 20:34:00,23.2,-8.3,31.01,South,180,2.0,5.0,24,0.00,,,0.00,meteohub,2013-03-20 02:34:00,
2013-03-19 20:39:00,22.5,-8.1,31.01,SE,135,2.0,5.0,25,0.00,,,0.00,meteohub,2013-03-20 02:39:00,
2013-03-19 20:44:00,22.3,-8.1,31.01,SE,135,3.0,4.0,25,0.00,,,0.00,meteohub,2013-03-20 02:44:00,
2013-03-19 20:49:00,21.7,-8.7,31.02,East,90,4.0,4.0,25,0.00,,,0.00,meteohub,2013-03-20 02:49:00,
2013-03-19 20:55:00,20.7,-8.0,31.02,East,90,5.0,5.0,27,0.00,,,0.00,meteohub,2013-03-20 02:55:00,
2013-03-19 21:00:00,19.4,-8.3,31.02,East,90,4.0,6.0,28,0.00,,,0.00,meteohub,2013-03-20 03:00:00,
2013-03-19 21:05:00,19.4,-8.3,31.02,East,90,5.0,6.0,28,0.00,,,0.00,meteohub,2013-03-20 03:05:00,
2013-03-19 21:10:00,19.9,-8.0,31.03,East,90,3.0,6.0,28,0.00,,,0.00,meteohub,2013-03-20 03:10:00,
2013-03-19 21:15:00,19.9,-8.0,31.03,North,0,3.0,6.0,28,0.00,,,0.00,meteohub,2013-03-20 03:15:00,
2013-03-19 21:20:00,19.2,-11.7,31.03,East,90,4.0,6.0,24,0.00,,,0.00,meteohub,2013-03-20 03:20:00,
2013-03-19 21:25:00,19.0,-11.9,31.03,NE,45,2.0,5.0,24,0.00,,,0.00,meteohub,2013-03-20 03:25:00,
2013-03-19 21:30:00,18.7,-11.4,31.03,North,0,1.0,4.0,25,0.00,,,0.00,meteohub,2013-03-20 03:30:00,
2013-03-19 21:35:00,18.3,-11.6,31.03,East,90,3.0,4.0,25,0.00,,,0.00,meteohub,2013-03-20 03:35:00,
2013-03-19 21:40:00,17.8,-12.1,31.03,South,180,2.0,4.0,25,0.00,,,0.00,meteohub,2013-03-20 03:40:00,
2013-03-19 21:45:00,17.6,-11.4,31.04,South,180,1.0,4.0,26,0.00,,,0.00,meteohub,2013-03-20 03:45:00,
2013-03-19 21:50:00,16.9,-12.1,31.04,SE,135,0.0,4.0,26,0.00,,,0.00,meteohub,2013-03-20 03:50:00,
2013-03-19 21:55:00,16.5,-11.6,31.04,East,90,4.0,4.0,27,0.00,,,0.00,meteohub,2013-03-20 03:55:00,
2013-03-19 22:00:00,16.2,-10.5,31.04,East,90,5.0,5.0,29,0.00,,,0.00,meteohub,2013-03-20 04:00:00,
2013-03-19 22:05:00,16.2,-10.5,31.04,East,90,5.0,5.0,29,0.00,,,0.00,meteohub,2013-03-20 04:05:00,
2013-03-19 22:10:00,15.6,-9.6,31.04,NE,45,2.0,5.0,31,0.00,,,0.00,meteohub,2013-03-20 04:10:00,
2013-03-19 22:16:00,15.4,-9.8,31.04,East,90,4.0,5.0,31,0.00,,,0.00,meteohub,2013-03-20 04:16:00,
2013-03-19 22:21:00,15.4,-9.2,31.05,East,90,4.0,5.0,32,0.00,,,0.00,meteohub,2013-03-20 04:21:00,
2013-03-19 22:26:00,15.3,-9.4,31.05,NE,45,2.0,5.0,32,0.00,,,0.00,meteohub,2013-03-20 04:26:00,
2013-03-19 22:31:00,15.1,-8.9,31.05,NE,45,2.0,5.0,33,0.00,,,0.00,meteohub,2013-03-20 04:31:00,
2013-03-19 22:37:00,15.1,-8.9,31.05,NE,45,2.0,4.0,33,0.00,,,0.00,meteohub,2013-03-20 04:37:00,
2013-03-19 22:42:00,15.1,-8.9,31.05,NE,45,2.0,4.0,33,0.00,,,0.00,meteohub,2013-03-20 04:42:00,
2013-03-19 22:47:00,14.9,-9.0,31.05,NE,45,2.0,4.0,33,0.00,,,0.00,meteohub,2013-03-20 04:47:00,
2013-03-19 22:52:00,14.4,-9.6,31.05,NE,45,4.0,4.0,33,0.00,,,0.00,meteohub,2013-03-20 04:52:00,
2013-03-19 22:57:00,14.4,-9.6,31.05,South,180,2.0,4.0,33,0.00,,,0.00,meteohub,2013-03-20 04:57:00,
2013-03-19 23:02:00,14.0,-9.8,31.05,South,180,1.0,4.0,33,0.00,,,0.00,meteohub,2013-03-20 05:02:00,
2013-03-19 23:07:00,14.0,-9.8,31.05,SE,135,3.0,4.0,33,0.00,,,0.00,meteohub,2013-03-20 05:07:00,
2013-03-19 23:12:00,14.0,-10.5,31.05,East,90,4.0,4.0,32,0.00,,,0.00,meteohub,2013-03-20 05:12:00,
2013-03-19 23:17:00,14.4,-10.1,31.04,East,90,4.0,4.0,32,0.00,,,0.00,meteohub,2013-03-20 05:17:00,
2013-03-19 23:22:00,14.4,-10.1,31.05,NE,45,2.0,4.0,32,0.00,,,0.00,meteohub,2013-03-20 05:22:00,
2013-03-19 23:27:00,13.5,-9.8,31.05,East,90,3.0,4.0,34,0.00,,,0.00,meteohub,2013-03-20 05:27:00,
2013-03-19 23:32:00,13.1,-9.9,31.05,East,90,1.0,4.0,34,0.00,,,0.00,meteohub,2013-03-20 05:32:00,
2013-03-19 23:37:00,12.9,-10.1,31.05,SE,135,3.0,3.0,34,0.00,,,0.00,meteohub,2013-03-20 05:37:00,
2013-03-19 23:42:00,12.7,-10.3,31.05,NE,45,3.0,4.0,34,0.00,,,0.00,meteohub,2013-03-20 05:42:00,
2013-03-19 23:47:00,12.6,-10.5,31.05,East,90,3.0,5.0,34,0.00,,,0.00,meteohub,2013-03-20 05:47:00,
2013-03-19 23:52:00,12.9,-10.1,31.05,East,90,4.0,5.0,34,0.00,,,0.00,meteohub,2013-03-20 05:52:00,
2013-03-19 23:57:00,12.9,-10.1,31.05,East,90,2.0,5.0,34,0.00,,,0.00,meteohub,2013-03-20 05:57:00,